Volver al catálogo

ONEWEB-0202

ActivoComunicacionesPO
NORAD 48224·PAYLOAD·🇬🇧 United Kingdom

Lanzado Apr 25, 2021 desde Vostochny Cosmodrome

Loading…

Próximos Pases (próximas 24 horas)

TLE

ActualizadoSource: CelesTrak SupGP

Época: Sep 14, 2026, 21:06 UTC

1 48224C 21031Q   26257.87934444  .00003203  00000+0  86498-2 0  2573
2 48224  87.8901 271.8229 0001655  71.5402 324.7107 13.14502369    11

Sigue ONEWEB-0202 en tiempo real con AllMySat

Download on the App Store